RH
60 63 54 48 34 38 40 45 53 58 58 66 67 73 74 69 52 56 58 56 70 60 50 37 31 30 26 26 22 22 21 23 21 18 18 18 17 15 15 14 14 15 17
49 60 68 56 53 39 45 48 54 69 66 80 59 57 62 66 68 61 64 72 74 54 42 40 38 30 29 26 28 25 26 23 21 18 17 16 18 16 15 14 18 18 18
64 52 67 71 62 53 42 47 54 58 56 49 45 48 86 89 90 65 82 89 74 65 50 40 38 33 29 32 30 28 26 23 22 19 17 19 20 19 18 16 16 18 17
93 75 71 76 82 65 56 50 52 54 54 50 51 49 47 52 76 71 97 94 75 67 63 62 52 48 53 35 35 29 33 25 22 19 17 19 19 17 13 14 16 18 17
100 99 95 90 93 89 70 58 53 48 49 51 44 46 52 53 60 55 82 100 100 80 82 88 80 66 37 35 30 33 27 21 21 22 25 24 20 12 12 13 14 14 14
100 100 100 100 98 95 92 81 66 53 44 40 42 42 40 43 59 55 61 63 100 100 100 98 80 53 48 42 34 29 29 24 23 24 27 22 14 12 14 15 17 20 24
100 100 100 100 100 100 97 95 92 81 65 50 43 44 48 38 44 52 52 66 78 85 100 99 75 71 60 39 30 35 27 29 26 31 25 15 17 15 17 30 32 33 40
100 100 100 100 100 100 100 100 100 95 81 71 63 56 49 51 41 47 56 62 64 80 100 100 93 66 44 33 34 36 27 26 34 27 17 18 20 28 42 50 63 59 60
96 100 100 100 100 100 100 100 100 100 100 98 88 86 77 68 54 49 57 87 100 99 68 74 65 49 36 35 42 43 34 25 31 17 22 33 40 55 53 41 34 30 31
88 100 100 100 100 100 100 100 100 100 100 100 98 99 93 88 82 70 77 98 90 71 52 54 54 41 37 44 51 46 33 32 23 18 37 50 50 44 33 27 26 25 25
75 96 100 100 99 96 100 100 100 100 100 100 100 100 100 100 100 98 100 99 84 79 70 60 48 43 52 54 52 44 38 34 20 31 49 34 29 26 24 25 27 25 22
31 70 76 81 100 100 98 99 100 100 100 100 100 100 100 100 90 82 89 91 89 78 74 67 53 51 62 52 48 46 38 24 26 48 37 32 29 27 28 28 29 29 29
18 44 93 85 94 95 89 93 100 100 100 100 100 100 100 100 95 86 84 77 74 71 75 73 60 63 48 48 53 43 26 23 48 60 56 55 58 55 47 42 41 37 35
19 15 24 49 84 79 80 83 79 87 93 90 84 93 88 98 99 91 93 96 92 91 92 70 65 52 55 52 57 35 20 46 61 63 57 56 57 55 54 52 50 48 47
23 20 16 15 40 96 100 92 77 80 78 81 80 78 83 90 99 93 87 96 100 91 81 69 56 59 70 57 53 20 29 58 58 58 57 49 40 32 29 27 24 19 16
18 21 20 18 18 25 56 79 93 94 88 81 77 74 77 92 98 98 86 81 90 97 83 67 62 68 74 62 38 23 49 58 51 43 30 20 17 16 15 16 16 17 17
16 17 19 21 21 21 22 26 37 48 69 72 69 68 81 84 96 90 84 86 90 92 89 76 82 85 80 61 24 32 40 47 31 23 18 19 19 18 18 18 18 19 19
16 16 17 19 23 24 21 22 21 22 28 44 53 55 60 60 55 62 79 86 83 94 94 90 100 84 70 35 24 21 18 20 18 18 21 22 22 22 22 23 23 23 22
23 18 18 18 20 23 26 22 24 25 26 29 48 63 48 48 74 62 93 98 96 100 100 100 100 84 42 28 24 18 16 21 21 23 24 25 25 24 24 23 23 23 23
24 21 18 20 22 23 24 23 26 35 28 26 42 77 97 100 100 99 100 100 100 100 100 100 89 47 28 28 23 19 20 25 24 26 27 26 25 24 24 24 23 23 24
29 24 24 20 20 26 25 24 25 36 37 28 20 27 24 40 73 90 100 100 100 100 100 89 50 28 35 26 22 21 24 24 25 28 28 26 25 26 26 27 27 24 22
29 28 26 26 24 24 26 31 31 31 47 39 23 24 26 67 98 100 100 100 100 100 78 33 29 37 27 24 23 26 26 29 31 34 33 30 28 27 28 29 28 26 22
29 33 29 27 29 27 38 43 31 31 40 37 28 28 53 94 100 100 100 92 69 43 30 34 35 28 25 26 27 29 34 41 42 42 36 33 32 31 27 25 26 25 22
28 32 36 31 32 30 34 46 33 29 35 36 33 33 50 79 100 95 65 40 32 36 40 40 30 27 25 27 29 34 36 42 46 42 43 40 35 35 33 29 29 27 25
31 33 39 35 34 39 35 34 35 33 35 33 33 32 37 73 94 69 36 44 47 50 39 31 29 29 29 32 34 34 32 39 41 38 37 34 36 33 29 28 28 27 24
39 40 41 43 37 39 44 42 37 34 32 34 31 33 49 73 82 43 42 53 47 38 36 34 33 33 37 38 36 34 36 39 38 34 30 32 29 28 28 29 29 26 26
Wind_Speed
48 49 48 49 48 43 39 36 35 34 33 31 31 32 33 33 32 33 33 35 37 39 40 42 42 43 42 43 46 47 48 52 56 57 62 64 63 63 65 64 64 62 64
53 52 51 51 51 49 46 41 39 39 41 40 39 38 37 37 37 37 37 38 37 37 38 41 42 43 46 49 50 51 52 55 56 59 65 62 61 62 62 64 65 67 65
58 56 55 54 53 53 50 48 46 46 47 46 43 40 40 40 41 41 40 37 38 43 43 44 47 50 50 52 54 51 54 57 59 66 66 64 62 62 64 65 63 66 65
61 58 59 57 56 55 55 52 51 51 49 49 47 44 44 44 43 44 43 41 43 45 48 51 51 51 53 54 53 58 61 64 69 70 65 64 66 66 65 63 63 64 65
65 62 62 60 59 58 58 57 54 53 53 52 50 47 47 47 48 47 47 47 49 50 53 54 52 52 52 54 60 61 66 70 70 65 65 67 69 65 60 59 59 60 61
69 67 66 64 63 62 61 59 58 57 56 54 53 51 50 47 48 49 52 49 51 54 55 54 52 52 52 58 58 65 70 69 68 64 68 68 66 59 55 54 54 53 53
72 73 71 69 66 65 64 63 62 60 59 58 58 55 53 51 49 50 51 51 54 56 57 57 51 54 56 58 64 67 71 67 65 67 68 66 59 54 50 46 44 45 46
72 76 77 72 70 68 67 66 65 64 63 63 62 61 57 54 52 53 55 56 58 61 61 59 56 54 58 64 71 71 67 70 67 67 66 55 50 45 42 40 41 43 43
78 68 69 79 73 73 71 69 68 66 65 65 64 63 62 59 57 57 57 57 62 50 46 51 54 59 66 70 71 72 71 71 68 65 55 46 43 41 41 43 44 44 46
77 79 72 66 68 77 74 72 70 70 70 69 69 67 66 64 63 64 60 57 53 54 55 59 64 68 70 70 72 69 66 68 65 61 48 44 44 43 44 42 41 42 43
77 79 80 78 75 67 72 76 72 71 72 72 72 71 70 71 68 68 64 61 63 63 64 65 68 69 70 73 71 70 69 67 62 52 45 44 43 42 42 42 42 41 41
70 76 81 81 80 78 74 70 71 72 70 69 68 68 69 67 63 61 62 64 66 68 67 69 69 72 72 69 69 66 70 65 56 43 40 40 39 38 39 40 41 41 41
67 73 73 76 78 79 79 78 75 72 71 72 72 70 68 64 65 67 64 64 64 66 68 69 72 71 67 67 64 64 63 61 45 39 41 39 38 37 38 38 39 38 39
66 67 70 76 75 79 79 78 80 79 79 79 77 73 72 72 71 70 69 70 69 71 71 71 69 69 65 65 63 62 63 49 42 39 40 39 39 39 40 41 42 42 44
70 66 65 67 74 74 71 72 77 78 80 79 78 75 74 72 69 69 69 70 71 71 71 69 67 64 63 66 61 59 56 43 40 39 41 41 42 42 41 42 43 44 45
73 71 65 63 64 70 73 73 73 74 76 76 77 75 75 73 73 73 69 70 71 71 67 68 65 66 67 62 58 55 46 42 41 41 41 42 41 42 43 44 45 46 48
75 73 69 64 63 62 63 68 73 75 77 79 79 77 72 69 65 67 66 66 67 67 65 63 65 66 66 59 56 51 45 43 40 42 42 42 43 44 45 46 47 48 50
76 76 71 67 64 63 62 61 60 62 67 73 76 75 74 70 68 65 63 62 62 62 63 67 66 67 59 55 53 48 42 40 42 45 45 45 47 48 50 51 54 56 59
73 74 72 69 67 65 63 63 59 55 56 58 58 59 63 62 62 63 63 61 63 63 65 68 67 60 56 53 49 45 43 43 47 48 49 50 52 54 56 58 60 64 67
72 73 71 70 68 67 65 62 59 55 56 54 53 54 50 52 55 60 64 64 64 68 66 64 60 56 53 48 45 46 46 48 52 54 55 56 57 59 61 62 65 68 71
69 70 70 71 69 67 67 63 58 54 55 56 51 52 51 53 55 57 57 60 61 59 60 56 53 53 50 48 48 47 50 52 57 59 60 62 64 66 68 71 74 77 80
67 68 68 69 68 67 66 63 59 55 53 49 49 49 47 49 53 55 55 55 54 53 54 52 51 49 47 48 51 52 56 56 60 64 67 69 71 75 77 79 82 86 88
68 68 67 66 67 67 63 62 61 57 54 50 49 47 47 48 49 49 48 49 50 52 51 50 48 47 49 52 55 57 59 62 65 71 74 75 78 82 84 86 89 93 96
65 67 66 62 64 66 64 62 63 59 54 49 47 48 47 49 49 48 48 49 51 49 49 48 47 49 53 55 59 62 65 66 68 70 80 86 86 90 93 96 100 103 107
58 63 64 62 61 63 65 64 62 59 55 50 48 48 49 49 48 47 47 47 47 48 47 48 51 54 56 60 64 68 71 72 73 74 76 85 90 95 99 103 107 112 115
55 56 59 61 59 61 64 65 62 59 53 50 50 49 49 48 47 46 46 46 48 49 51 53 56 58 61 65 69 73 76 79 82 83 82 83 87 94 103 108 115 119 122
Wind_Direction
266 266 265 265 266 257 255 259 260 262 260 266 274 273 276 276 276 286 291 287 290 285 285 284 285 288 291 296 298 300 300 302 302 299 301 297 296 293 294 291 286 286 283
266 263 262 262 264 263 260 257 255 254 257 261 271 273 273 277 277 281 289 285 285 280 282 283 284 286 291 295 298 297 297 298 300 302 306 299 294 290 289 286 281 281 281
260 262 259 259 259 263 262 259 257 257 261 265 269 271 272 276 274 276 284 284 282 280 279 282 286 288 292 295 298 295 296 298 304 304 305 299 295 292 288 285 281 278 276
252 257 257 256 256 258 261 260 259 261 263 266 267 270 270 273 275 274 281 285 286 285 281 287 289 291 296 299 300 301 300 301 301 305 303 299 298 294 288 282 279 276 274
246 249 251 252 254 255 258 260 259 260 261 264 267 268 272 274 274 274 278 281 287 289 286 287 287 291 295 297 303 302 305 308 304 302 302 300 300 293 289 283 281 278 276
243 246 247 247 250 252 254 257 260 260 261 262 265 268 270 272 273 275 277 279 282 284 284 288 289 290 293 300 301 308 310 307 303 302 305 303 299 293 288 286 282 278 276
245 244 244 245 246 249 252 255 257 259 262 264 266 267 268 269 270 272 277 279 280 282 286 290 286 290 296 300 303 307 312 307 302 305 305 301 294 291 289 288 286 281 278
240 247 245 244 246 247 249 251 255 258 259 262 264 267 268 270 271 272 275 280 282 285 288 285 287 294 297 301 304 308 309 308 307 307 303 298 294 291 292 290 287 283 280
240 240 247 245 246 248 250 252 253 255 259 262 266 267 269 272 275 276 278 283 283 283 287 290 289 295 299 301 303 306 307 305 306 307 304 298 295 291 290 290 287 284 281
242 240 242 243 249 247 250 252 255 257 259 262 263 265 267 271 274 276 285 279 279 283 288 290 293 298 298 300 304 305 307 304 306 305 299 296 293 290 290 290 286 284 283
243 243 243 244 246 247 254 251 254 257 258 261 266 269 272 273 279 279 275 280 281 282 287 289 293 296 297 301 304 303 305 304 305 301 296 293 295 294 294 290 289 285 284
246 246 246 245 246 247 249 252 256 258 260 261 264 266 268 269 271 276 277 279 279 282 284 288 293 296 299 302 301 302 304 302 302 298 294 295 297 298 296 295 295 293 292
247 246 246 246 246 247 249 251 255 257 258 261 266 267 267 268 270 274 276 279 281 283 286 290 292 297 299 302 300 305 302 301 294 287 292 295 300 301 301 302 300 301 300
251 249 248 247 249 250 250 253 253 255 258 260 262 266 268 270 273 276 277 276 279 284 287 288 292 296 298 304 300 302 301 292 286 289 290 296 298 297 298 297 297 299 298
250 252 251 250 249 250 252 255 255 257 259 260 261 264 268 270 271 274 277 277 279 282 285 288 293 293 297 300 297 298 299 288 287 292 295 296 297 297 297 297 297 297 297
248 249 251 250 250 251 252 255 256 258 260 262 264 265 267 269 271 274 276 278 279 281 283 286 292 294 295 296 294 296 290 286 288 293 295 296 297 297 298 298 299 298 298
246 247 249 251 253 253 255 257 259 260 262 263 264 266 266 271 272 273 275 277 278 280 282 285 289 292 293 291 291 290 288 289 293 296 295 295 296 297 296 295 295 294 293
248 247 247 249 252 254 257 259 261 263 265 266 267 269 270 272 274 274 273 275 276 279 280 285 288 290 287 287 286 286 288 291 293 293 294 294 295 295 295 295 295 294 294
250 249 247 248 250 253 256 260 263 267 268 269 271 271 273 273 270 273 272 275 275 276 280 282 286 283 283 283 285 285 288 290 291 291 292 292 292 294 294 295 296 295 296
249 249 247 247 249 252 254 258 262 264 268 271 272 272 275 272 272 271 270 270 269 273 277 280 281 280 280 281 282 285 286 287 289 290 289 289 290 291 292 294 294 295 295
248 251 249 247 246 249 253 256 260 263 266 269 273 272 274 272 270 270 270 270 273 274 277 277 278 277 277 281 282 284 285 287 288 288 289 290 291 292 292 293 295 297 297
245 247 248 246 244 245 248 252 256 259 262 267 271 273 273 274 272 271 270 270 272 274 275 275 273 273 277 280 282 283 285 287 288 289 290 290 291 292 293 293 294 297 297
240 241 244 246 243 243 244 248 252 255 260 266 269 271 272 273 272 270 271 273 272 272 272 271 271 273 277 280 283 284 286 288 291 294 294 294 294 293 292 292 293 295 295
242 238 240 242 243 242 241 244 249 253 257 262 265 268 270 270 269 270 273 272 271 270 269 270 273 275 279 281 283 284 286 287 289 292 297 299 301 300 299 300 299 300 300
243 238 236 238 239 239 242 242 245 250 255 260 264 266 269 268 269 270 273 272 270 272 272 274 276 278 281 282 284 285 287 288 289 290 291 295 299 300 301 302 301 302 301
242 238 234 235 237 237 238 241 243 247 253 258 262 264 266 266 268 271 272 272 273 275 276 277 278 280 282 283 285 287 289 290 292 293 293 293 295 298 302 303 303 303 302